Regional Weather Roundup
Issued by NWS

Current Version | Previous Version | Text Only | Print | Product List | Glossary On
Versions: 1 2 3 4 5 6 7 8 9 10 11 12 13 14 15 16 17 18 19 20 21 22 23 24 25 26 27 28 29 30 31 32 33 34 35 36 37 38 39 40 41 42 43 44 45 46 47 48 49 50
000
ASUS46 KSTO 021315
RWRCA

NORTHERN AND CENTRAL CA REGIONAL WEATHER ROUNDUP
NATIONAL WEATHER SERVICE SACRAMENTO CA
500 AM PST FRI DEC 02 2022

NOTE: FAIR INDICATES FEW OR NO CLOUDS BELOW 12,000 FEET WITH NO
SIGNIFICANT WEATHER AND/OR OBSTRUCTIONS TO VISIBILITY.

CAZ001-003-021400-
NORTHWEST AREA

CITY           SKY/WX    TMP DP  RH WIND       PRES   REMARKS
CRESCENT CITY  CLOUDY    41  34  76 S13       30.15F
UKIAH          FOG       30  29  96 CALM      30.18R VSB 1/4
$$

CAZ006-505>513-021400-
BAY AREA

CITY           SKY/WX    TMP DP  RH WIND       PRES   REMARKS
SANTA ROSA     CLEAR     29  28  96 N5        30.16S WCI  24
SAN RAFAEL     N/A       35  MM  MM MISG
NAPA           CLEAR     33  29  85 N6        30.17R WCI  28
CONCORD        CLEAR     34  33  96 SE3       30.17R
OAKLAND CITY   N/A       38  MM  MM MISG
OAKLAND        PTCLDY    34  32  92 NE3       30.17R
SAN FRAN CITY  N/A       43  MM  76 MISG
SAN FRAN ARPT  CLEAR     39  36  89 S3        30.16R
LIVERMORE      CLEAR     32  31  96 CALM      30.15R
HAYWARD          N/A    N/A N/A N/A NE6       30.15R
REDWOOD CITY   N/A       33  MM  97 MISG
MOFFETT ARPT   CLEAR     36  34  93 CALM      30.16R
SAN JOSE ARPT  CLEAR     37  33  85 S3        30.16R
$$
CAZ034-037-514>518-021400-
CENTRAL COAST

CITY           SKY/WX    TMP DP  RH WIND       PRES   REMARKS
WATSONVILLE    CLEAR     33  33 100 CALM      30.15R
SALINAS        CLEAR     36  34  92 CALM      30.14R
MONTEREY       CLEAR     37  35  92 E5        30.13R WCI  33
SAN LUIS OBISP CLOUDY    48  43  82 S3        30.08S
SANTA MARIA    CLOUDY    48  48 100 NW3       30.08F FOG
HALF MOON BAY  FAIR      36  36 100 CALM      30.15R
$$
CAZ015-016-021400-
NORTHERN SACRAMENTO VALLEY

CITY           SKY/WX    TMP DP  RH WIND       PRES   REMARKS
REDDING        CLEAR     30  27  88 N5        30.16F WCI  25
RED BLUFF      CLEAR     31  27  85 N5        30.20R WCI  26
OROVILLE       CLEAR     37  34  89 CALM      30.20R
$$
CAZ016>018-021400-
SOUTHERN SACRAMENTO VALLEY

CITY           SKY/WX    TMP DP  RH WIND       PRES   REMARKS
AUBURN         CLEAR     34  32  93 E7        30.14R WCI  28
BEALE AFB      CLEAR     36  33  92 NE5       30.17R WCI  32
LINCOLN        FAIR      32  32 100 E5        30.17R WCI  27
SAC INTL ARPT  FOG       32  30  92 CALM      30.17R VSB 1/2
MATHER AIRPORT CLEAR     34  34 100 NE3       30.15R
DOWNTOWN SAC   N/A       34  MM  MM MISG
SAC EXEC ARPT  PTCLDY    32  31  96 CALM      30.18R
VACAVILLE      CLEAR     31  28  89 CALM      30.18R
TRAVIS AFB     CLEAR     29  25  85 N5        30.16R WCI  24
$$
CAZ019>021-021400-
SAN JOAQUIN VALLEY

CITY           SKY/WX    TMP DP  RH WIND       PRES   REMARKS
STOCKTON       FOG       34  32  92 NE3       30.16R VSB 1/2
MODESTO        FOG       31  31 100 E3        30.15R VSB 1/4
MERCED         FOG       37  35  92 CALM      30.14F VSB 1/4
LEMOORE        CLEAR     40  37  89 CALM      30.16R FOG
FRESNO         PTCLDY    39  38  96 W5        30.15R
HANFORD        PTCLDY    42  40  92 CALM      30.16R
PORTERVILLE    LGT RAIN  44  43  96 SW5       30.17R
BAKERSFIELD    LGT RAIN  43  42  97 SW6       30.17R FOG
$$
CAZ011-012-071-021400-
NORTHERN MOUNTAINS

CITY           SKY/WX    TMP DP  RH WIND       PRES   REMARKS
YREKA          MOCLDY    26  22  84 S5        30.12R WCI  20
MOUNT SHASTA   CLEAR     13   7  77 CALM      30.08R
ALTURAS        PTCLDY     0  -2  91 CALM      30.07R FOG
$$
CAZ011-012-071-021400-
SIERRA NEVADA MTNS

CITY           SKY/WX    TMP DP  RH WIND       PRES   REMARKS
BLUE CANYON    CLEAR     21  18  88 E5        30.04S WCI  15
TRUCKEE        FOG      N/A N/A N/A CALM      30.05R VSB 3/4
TAHOE VLY ARPT PTCLDY     4   1  88 SW3       30.00S
MAMMOTH LAKES  FAIR      23  14  68 E13       29.99R WCI  11
$$



USA.gov is the U.S. government's official web portal to all federal, state and local government web resources and services.